Location: Unspecified
(41.1850°N, 73.2650°W)
Time: 18:11:16
(UTC+00:00)

SL-19 R/B - Pass Details

Date: 14 December 2025
Orbit: 796 x 1007 km, 99.6° (Epoch: 15 January)

Event Time Altitude Azimuth Distance (km) Brightness Sun altitude
Rises 22:56:08 0° 146° (SE) 3,346 7.1 -16.5°
Reaches altitude 10° 22:58:30 10° 140° (SE) 2,440 6.4 -17.0°
Maximum altitude 23:03:38 46° 68° (ENE) 1,144 4.4 -17.9°
Drops below altitude 10° 23:09:03 10° 357° (N) 2,581 6.6 -18.9°
Sets 23:11:37 0° 352° (N) 3,560 7.4 -19.3°
